EW0433 Weather Reports


Display with metric or nautical units.
time (UTC)temp
F
wind
direction
speed
MPH
gust
MPH
rain 1hr
in
rain 24hr
in
rain mn
in
humidity
%
barometer
mb
20260506170342 62 248 4.0 7.0 0.00 0.00 0.00 70 1020.7
20260506165329 62 255 4.0 8.0 0.00 0.00 0.00 71 1020.7
20260506164333 61 257 4.0 8.0 0.00 0.00 0.00 71 1020.7
20260506163336 60 221 4.0 7.0 0.00 0.00 0.00 71 1020.7
20260506162333 60 251 5.0 9.0 0.00 0.00 0.00 71 1020.7
20260506161333 59 220 4.0 8.0 0.00 0.00 0.00 72 1020.7
20260506160315 58 254 3.0 9.0 0.00 0.00 0.00 71 1020.7
20260506155323 58 249 4.0 8.0 0.00 0.00 0.00 71 1020.8
20260506154348 57 252 3.0 8.0 0.00 0.00 0.00 71 1020.7
20260506153314 57 258 5.0 9.0 0.00 0.00 0.00 71 1020.6
20260506152323 57 259 6.0 10.0 0.00 0.00 0.00 71 1020.7
20260506151326 56 258 4.0 11.0 0.00 0.00 0.00 71 1020.6
20260506150354 56 273 3.0 8.0 0.00 0.00 0.00 71 1020.6
20260506145340 55 261 5.0 9.0 0.00 0.00 0.00 71 1020.6
20260506144325 55 244 5.0 8.0 0.00 0.00 0.00 72 1020.6
20260506142333 54 267 4.0 8.0 0.00 0.00 0.00 73 1020.4
20260506141405 54 254 3.0 9.0 0.00 0.00 0.00 74 1020.3
20260506140318 54 291 1.0 8.0 0.00 0.00 0.00 74 1020.3
20260506135323 54 266 2.0 5.0 0.00 0.00 0.00 74 1020.2
20260506134338 54 293 3.0 8.0 0.00 0.00 0.00 74 1020.1
20260506133316 54 274 3.0 8.0 0.00 0.00 0.00 74 1020.1
20260506132317 54 273 3.0 8.0 0.00 0.00 0.00 74 1020.1
20260506131330 54 301 3.0 5.0 0.00 0.00 0.00 74 1020.1
20260506130358 54 273 1.0 6.0 0.00 0.00 0.00 74 1020.0
20260506125326 54 319 1.0 5.0 0.00 0.00 0.00 75 1019.9
20260506124328 54 264 2.0 6.0 0.00 0.00 0.00 75 1019.9
20260506123327 54 266 2.0 5.0 0.00 0.00 0.00 75 1019.8
20260506122329 54 273 1.0 6.0 0.00 0.00 0.00 75 1019.8
20260506121350 54 302 0.0 3.0 0.00 0.00 0.00 75 1019.7
20260506120316 54 283 0.0 2.0 0.00 0.00 0.00 75 1019.7
20260506115325 54 277 1.0 3.0 0.00 0.00 0.00 75 1019.6
20260506114333 54 267 2.0 5.0 0.00 0.00 0.00 75 1019.5
20260506113336 54 306 2.0 7.0 0.00 0.00 0.00 75 1019.5
20260506112345 54 299 1.0 4.0 0.00 0.00 0.00 75 1019.5
20260506111331 54 294 1.0 5.0 0.00 0.00 0.00 75 1019.4
20260506110316 54 257 3.0 8.0 0.00 0.00 0.00 75 1019.3
20260506105327 54 283 1.0 6.0 0.00 0.00 0.00 75 1019.3
20260506104340 54 273 5.0 9.0 0.00 0.00 0.00 75 1019.2
20260506103315 54 256 4.0 8.0 0.00 0.00 0.00 75 1019.1
20260506102326 54 248 3.0 9.0 0.00 0.00 0.00 75 1019.1
20260506101340 54 248 3.0 9.0 0.00 0.00 0.00 75 1019.1
20260506100317 54 248 3.0 8.0 0.00 0.00 0.00 75 1019.0
20260506095324 54 242 2.0 7.0 0.00 0.00 0.00 75 1019.1
20260506094340 54 263 2.0 5.0 0.00 0.01 0.00 75 1019.1
20260506093316 54 295 2.0 6.0 0.00 0.01 0.00 75 1019.1
20260506092322 54 295 1.0 6.0 0.00 0.01 0.00 75 1019.1
20260506091346 54 298 2.0 8.0 0.00 0.01 0.00 75 1019.2
20260506090329 54 288 2.0 8.0 0.00 0.01 0.00 75 1019.1
20260506085355 54 310 2.0 8.0 0.00 0.01 0.00 75 1019.2
20260506084339 54 289 3.0 7.0 0.00 0.04 0.00 75 1019.1
20260506083320 54 310 2.0 5.0 0.00 0.04 0.00 75 1019.2
20260506082354 54 323 3.0 8.0 0.00 0.04 0.00 75 1019.1
20260506081313 54 286 1.0 5.0 0.00 0.04 0.00 75 1019.2
20260506080343 54 318 1.0 5.0 0.00 0.04 0.00 75 1019.2
20260506073327 54 244 3.0 6.0 0.00 0.08 0.00 75 1018.8
20260506072327 54 266 3.0 6.0 0.00 0.08 0.00 75 1018.7
20260506071333 54 276 1.0 6.0 0.00 0.08 0.00 75 1018.7
20260506070316 54 268 4.0 8.0 0.00 0.08 0.00 75 1018.6
20260506062330 54 262 1.0 7.0 0.00 0.14 0.08 76 1018.5
20260506061335 54 277 5.0 10.0 0.00 0.14 0.08 76 1018.4
20260506060338 54 298 3.0 10.0 0.00 0.14 0.08 76 1018.3
20260506051331 54 256 5.0 10.0 0.00 0.17 0.08 78 1018.1
20260506050317 54 260 5.0 10.0 0.00 0.17 0.08 77 1018.0
20260506044357 54 266 2.0 9.0 0.00 0.28 0.08 78 1017.8
20260506043335 54 316 3.0 8.0 0.00 0.28 0.08 78 1017.7
20260506042332 54 264 2.0 7.0 0.00 0.28 0.08 78 1017.6
20260506041332 55 267 4.0 8.0 0.00 0.28 0.08 79 1017.5
20260506040317 55 264 3.0 7.0 0.00 0.28 0.08 79 1017.3
20260506035323 55 271 1.0 7.0 0.00 0.28 0.08 79 1017.2
20260506034327 55 345 4.0 9.0 0.00 0.31 0.08 78 1017.1
20260506033328 55 345 4.0 9.0 0.00 0.31 0.08 77 1016.8
20260506032316 55 345 6.0 12.0 0.00 0.31 0.08 77 1016.7
20260506031326 56 345 5.0 10.0 0.00 0.31 0.08 77 1016.6
20260506030325 56 345 4.0 10.0 0.00 0.31 0.08 76 1016.5
20260506025326 56 345 5.0 10.0 0.00 0.31 0.08 76 1016.4
20260506024329 56 345 5.0 12.0 0.00 0.36 0.08 76 1016.3
20260506023329 56 259 6.0 14.0 0.00 0.36 0.08 76 1016.2
20260506022318 57 296 9.0 16.0 0.00 0.36 0.08 75 1016.1
20260506021326 57 276 10.0 15.0 0.00 0.36 0.08 74 1015.9
20260506020327 57 264 8.0 15.0 0.00 0.36 0.08 73 1015.9
20260506015340 57 252 8.0 17.0 0.00 0.36 0.08 74 1015.9
20260506014318 57 286 9.0 17.0 0.00 0.38 0.08 73 1015.7
20260506013321 57 248 8.0 16.0 0.00 0.38 0.08 74 1015.8
20260506012356 58 254 9.0 15.0 0.00 0.38 0.08 73 1015.8
20260506011324 58 271 11.0 18.0 0.00 0.38 0.08 74 1015.9
20260506010318 58 274 9.0 18.0 0.00 0.38 0.08 73 1015.8
20260506005338 59 258 11.0 16.0 0.00 0.38 0.08 73 1015.7
20260506004326 59 263 10.0 17.0 0.00 0.42 0.08 73 1015.6
20260506003327 59 249 12.0 18.0 0.00 0.42 0.08 72 1015.5
20260506002325 60 256 10.0 19.0 0.00 0.42 0.08 72 1015.4
20260506001348 60 239 11.0 18.0 0.00 0.42 0.08 71 1015.3
20260506000330 60 260 12.0 19.0 0.00 0.42 0.08 71 1015.4
20260505234326 61 298 13.0 20.0 0.00 0.44 0.08 70 1015.3
20260505233316 62 255 11.0 18.0 0.00 0.44 0.08 70 1015.3
20260505232326 62 257 11.0 18.0 0.00 0.44 0.08 69 1015.2
20260505231316 62 270 9.0 16.0 0.00 0.44 0.08 69 1015.2
20260505230343 63 264 8.0 16.0 0.00 0.44 0.08 68 1015.2
20260505225327 63 258 12.0 21.0 0.00 0.44 0.08 68 1015.2
20260505224317 62 269 10.0 15.0 0.00 0.44 0.08 68 1015.2
20260505223344 63 266 6.0 13.0 0.00 0.44 0.08 68 1015.2
20260505222341 63 265 7.0 16.0 0.00 0.44 0.08 68 1015.3
20260505221345 62 268 7.0 15.0 0.00 0.44 0.08 69 1015.4
20260505220334 63 262 9.0 13.0 0.00 0.44 0.08 68 1015.4
20260505215319 63 258 8.0 12.0 0.00 0.44 0.08 68 1015.3
20260505214332 63 274 5.0 12.0 0.00 0.44 0.08 69 1015.4
20260505213315 62 242 7.0 13.0 0.00 0.44 0.08 68 1015.5
20260505212348 62 252 7.0 14.0 0.00 0.44 0.08 68 1015.6
20260505211325 62 249 7.0 10.0 0.00 0.44 0.08 69 1015.6
20260505210325 62 259 8.0 12.0 0.00 0.44 0.08 69 1015.8
20260505205314 62 255 9.0 12.0 0.00 0.44 0.08 69 1015.7
20260505204321 61 239 4.0 13.0 0.00 0.44 0.08 69 1015.7
20260505203327 61 242 9.0 14.0 0.00 0.44 0.08 69 1015.6
20260505202313 61 252 9.0 16.0 0.00 0.44 0.08 69 1015.7
20260505201319 61 250 7.0 14.0 0.00 0.44 0.08 70 1015.7
20260505195344 61 283 8.0 13.0 0.00 0.44 0.08 70 1016.0
20260505194314 61 260 6.0 13.0 0.00 0.44 0.08 70 1016.0
20260505193338 60 234 7.0 11.0 0.00 0.44 0.08 72 1016.0
20260505192324 59 239 8.0 12.0 0.00 0.44 0.08 71 1016.0
20260505191334 59 251 9.0 14.0 0.00 0.44 0.08 71 1016.0
20260505190332 59 247 7.0 15.0 0.00 0.44 0.08 72 1016.0
20260505185322 59 248 9.0 15.0 0.00 0.44 0.08 71 1015.9
20260505184326 59 257 9.0 15.0 0.00 0.44 0.08 72 1015.9
20260505183333 59 252 7.0 13.0 0.00 0.44 0.08 71 1016.0
20260505182314 58 258 6.0 12.0 0.00 0.44 0.08 72 1016.0
20260505181319 58 278 8.0 13.0 0.00 0.44 0.08 72 1015.9
20260505180322 58 233 8.0 12.0 0.00 0.44 0.08 72 1015.8
20260505175329 58 244 9.0 13.0 0.00 0.44 0.08 71 1015.8
20260505174336 57 251 6.0 15.0 0.00 0.44 0.08 71 1015.6
20260505173333 57 260 7.0 15.0 0.00 0.44 0.08 71 1015.6
20260505172323 57 264 9.0 16.0 0.00 0.44 0.08 71 1015.5
20260505171325 56 273 8.0 13.0 0.00 0.44 0.08 70 1015.5